Weather History for Hobart, OK

Change the Weather History Date:

Tuesday, January 15, 2013

  Actual Average Record
Temperature  
Mean Temperature 30 °F -  
Max Temperature 36 °F 47 °F 71 °F (2000)
Min Temperature 21 °F 26 °F 10 °F (2009)
Degree Days  
Heating Degree Days 35    
Moisture  
Dew Point 14 °F    
Average Humidity 57    
Maximum Humidity 75    
Minimum Humidity 35    
Precipitation  
Precipitation 0.00 in - - ()
Sea Level Pressure  
Sea Level Pressure 30.29 in    
Wind  
Wind Speed 9 mph (NNE)    
Max Wind Speed 13 mph    
Max Gust Speed -    
Visibility 10 miles    
Events      
Averages and records for this station are not official NWS values.
T = Trace of Precipitation, MM = Missing Value Source: NWS Daily Summary

Daily Weather History Graph

Daily Weather History Graph

Search for Another Location

Airport:

Trip Planner

Search our weather history database for the weather conditions in past years. The results will help you decide how hot, cold, wet, or windy it might be!

Date:

Astronomy

Jan. 15, 2013 Rise Set
Actual Time 7:43 AM CST 5:48 PM CST
Civil Twilight 7:16 AM CST 6:15 PM CST
Nautical Twilight 6:45 AM CST 6:46 PM CST
Astronomical Twilight 6:14 AM CST 7:17 PM CST
Moon 10:02 AM CST (1/15) 10:26 PM CST (1/15)
Length of Visible Light 10h 59m
Length of Day
10h 04m
Waxing Crescent, 19% of the Moon is Illuminated
Jan 15
Waxing Crescent
Jan 18
First Quarter
Jan 26
Full
Feb 3
Last Quarter
Feb 10
New

Hourly Weather History & Observations

Time (CST) Temp. Windchill Dew Point Humidity Pressure Visibility Wind Dir Wind Speed Gust Speed Precip Events Conditions
12:53 AM 28.0 °F 18.1 °F 14.0 °F 56% 30.31 in 10.0 mi ENE 11.5 mph - N/A   Overcast
1:53 AM 27.0 °F 16.7 °F 14.0 °F 58% 30.30 in 10.0 mi ENE 11.5 mph - N/A   Overcast
2:53 AM 26.1 °F 16.2 °F 15.1 °F 63% 30.30 in 10.0 mi ENE 10.4 mph - N/A   Overcast
3:53 AM 25.0 °F 16.3 °F 16.0 °F 69% 30.31 in 10.0 mi NE 8.1 mph - N/A   Partly Cloudy
4:53 AM 25.0 °F 17.1 °F 17.1 °F 72% 30.30 in 10.0 mi NE 6.9 mph - N/A   Overcast
5:53 AM 25.0 °F 17.1 °F 16.0 °F 69% 30.31 in 10.0 mi NNE 6.9 mph - N/A   Overcast
6:53 AM 24.1 °F 15.2 °F 17.1 °F 75% 30.29 in 10.0 mi NNE 8.1 mph - N/A   Overcast
7:53 AM 25.0 °F 16.3 °F 17.1 °F 72% 30.31 in 10.0 mi NE 8.1 mph - N/A   Overcast
8:53 AM 25.0 °F 13.6 °F 16.0 °F 69% 30.33 in 10.0 mi NNE 12.7 mph - N/A   Overcast
9:53 AM 27.0 °F 17.3 °F 15.1 °F 61% 30.33 in 10.0 mi NNE 10.4 mph - N/A   Overcast
10:53 AM 30.9 °F 21.7 °F 14.0 °F 50% 30.32 in 10.0 mi NNE 11.5 mph - N/A   Overcast
11:53 AM 34.0 °F 25.0 °F 14.0 °F 44% 30.29 in 10.0 mi North 12.7 mph - N/A   Overcast
12:53 PM 33.1 °F 23.9 °F 14.0 °F 46% 30.25 in 10.0 mi North 12.7 mph - N/A   Overcast
1:53 PM 34.0 °F 25.0 °F 12.0 °F 40% 30.25 in 10.0 mi North 12.7 mph - N/A   Overcast
2:53 PM 35.1 °F 26.9 °F 12.0 °F 39% 30.24 in 10.0 mi North 11.5 mph - N/A   Overcast
3:53 PM 36.0 °F 29.6 °F 10.9 °F 36% 30.26 in 10.0 mi NNE 8.1 mph - N/A   Mostly Cloudy
4:53 PM 35.1 °F 27.4 °F 10.0 °F 35% 30.27 in 10.0 mi North 10.4 mph - N/A   Mostly Cloudy
5:53 PM 30.0 °F 25.2 °F 12.9 °F 49% 30.28 in 10.0 mi NNE 4.6 mph - N/A   Mostly Cloudy
6:53 PM 28.9 °F 22.8 °F 12.9 °F 51% 30.29 in 10.0 mi NNE 5.8 mph - N/A   Clear
7:53 PM 25.0 °F 20.7 °F 15.1 °F 66% 30.30 in 10.0 mi ESE 3.5 mph - N/A   Clear
8:53 PM 27.0 °F 23.0 °F 12.9 °F 56% 30.30 in 10.0 mi East 3.5 mph - N/A   Clear
9:53 PM 24.1 °F - 12.9 °F 62% 30.30 in 10.0 mi Calm Calm - N/A   Clear
10:53 PM 21.0 °F 16.2 °F 14.0 °F 74% 30.29 in 10.0 mi WSW 3.5 mph - N/A   Clear